Regional Weather Roundup
Issued by NWS

Home | Current Version | Previous Version | Text Only | Print | Product List | Glossary On
Versions: 1 2 3 4 5 6 7 8 9 10 11 12 13 14 15 16 17 18 19 20 21 22 23 24 25 26 27 28 29 30 31 32 33 34 35 36 37 38 39 40 41 42 43 44 45 46 47 48 49 50
007
ASUS43 KDMX 251801
RWRIA

WEATHER ROUNDUP FOR IOWA
NATIONAL WEATHER SERVICE DES MOINES IA
1200 PM CST SUN FEB 25 2018

NOTE: "FAIR" INDICATES FEW OR NO CLOUDS BELOW 12,000 FEET WITH NO
SIGNIFICANT WEATHER AND/OR OBSTRUCTIONS TO VISIBILITY.

* - THESE STATIONS ARE NOT NWS STATIONS...THUS NOT UNDER NWS
QUALITY CONTROL.  THEY ALSO DO NOT REPORT WEATHER SUCH
AS PRECIPITATION OR FOG.

IAZ001>003-012>014-020>022-031>034-043>046-251900-
   NORTHWEST IOWA

CITY           SKY/WX    TMP DP  RH WIND       PRES   REMARKS
CARROLL *      SUNNY     32  23  69 W18       29.93R WCI  20
CHEROKEE *     SUNNY     30  19  64 W13       29.91R WCI  20
DENISON *      SUNNY     32  19  59 W15       29.96R WCI  22
LE MARS *      SUNNY     32  19  59 W9        29.92R WCI  24
ORANGE CITY *  SUNNY     28  21  74 W16       29.89R WCI  17
SHELDON *      SUNNY     25  18  74 W15       29.86R WCI  12
SIOUX CITY     SUNNY     31  18  58 W10       29.94R WCI  22
6HR MIN TEMP:  18; 6HR MAX TEMP:  31;

SPENCER        SUNNY     26  16  65 W17       29.88R WCI  13
6HR MIN TEMP:  13; 6HR MAX TEMP:  26;

STORM LAKE *   SUNNY     28  19  69 W24       29.88R WCI  14
$$

IAZ055>058-069>071-079>083-090>094-251900-
   SOUTHWEST IOWA

CITY           SKY/WX    TMP DP  RH WIND       PRES   REMARKS
ATLANTIC *     SUNNY     36  25  64 SW12      29.99R WCI  27
AUDUBON *      SUNNY     36  27  69 W7        29.97R WCI  30
CLARINDA *     SUNNY     41  34  75 SW14      30.04R
COUNCIL BLFS * SUNNY     36  27  69 SW10      29.99R WCI  28
CRESTON *      SUNNY     39  28  65 SW17      30.00R WCI  30
LAMONI         SUNNY     42  27  55 SW18      30.01R
6HR MIN TEMP:  24; 6HR MAX TEMP:  42;

RED OAK *      SUNNY     37  28  70 W12       30.01R WCI  30
SHENANDOAH *   SUNNY     39  30  70 SW15      30.02S WCI  31
$$

IAZ047>049-059>061-072>074-084-251900-
   CENTRAL IOWA

CITY           SKY/WX    TMP DP  RH WIND       PRES   REMARKS
AMES           SUNNY     34  24  67 W15       29.95R WCI  24
6HR MIN TEMP:  22; 6HR MAX TEMP:  34;

ANKENY *       SUNNY     37  25  60 W15       29.97R WCI  28
BOONE *        SUNNY     32  21  64 W15G24    29.92R WCI  22
CHARITON *     SUNNY     41  25  52 SW20      29.98S
DES MOINES     MOSUNNY   38  26  62 W13       29.97R WCI  30
6HR MIN TEMP:  23; 6HR MAX TEMP:  38;

GRINNELL*      SUNNY     37  27  66 SW17      29.95R WCI  28
KNOXVILLE *    SUNNY     41  25  52 SW15      29.96R
MARSHALLTOWN   SUNNY     34  25  69 W18       29.91R WCI  23
6HR MIN TEMP:  22; 6HR MAX TEMP:  34;

NEWTON *       SUNNY     37  25  60 W13G21    29.96R WCI  29
PELLA *        SUNNY     41  24  49 SW16G23   29.98R
$$

IAZ004>006-015-016-023>025-035-036-251900-
   NORTH CENTRAL IOWA

CITY           SKY/WX    TMP DP  RH WIND       PRES   REMARKS
CLARION *      SUNNY     27  25  93 W18       29.89R WCI  13
ESTHERVILLE    SUNNY     23  16  74 W24       29.84R WCI   7
6HR MIN TEMP:  12; 6HR MAX TEMP:  23;

FORT DODGE *   SUNNY     31  20  63 W14       29.90R WCI  21
MASON CITY     SUNNY     25  18  74 W20       29.85R WCI  11
6HR MIN TEMP:  13; 6HR MAX TEMP:  25;

FOREST CITY *  FAIR      28  21  74 W8        29.85R WCI  20
WEBSTER CITY * SUNNY     28  19  69 W17       29.89R WCI  16
IOWA FALLS *   FAIR      31  23  71 SW22      29.90R WCI  18
$$

IAZ007>011-017>019-026>030-037>042-050>054-066-251900-
   NORTHEAST IOWA

CITY           SKY/WX    TMP DP  RH WIND       PRES   REMARKS
CEDAR RAPIDS   FAIR      40  27  59 SW20      29.91R WCI  30
6HR MIN TEMP:  25; 6HR MAX TEMP:  40;

CHARLES CITY * FAIR      28  21  74 W18G25    29.86R WCI  16
CLINTON *      FAIR      38  27  64 SW18      29.93S WCI  28
DECORAH *      FAIR      28  19  69 W10G22    29.81S WCI  19
DUBUQUE        FAIR      35  22  58 W21       29.86S WCI  24
6HR MIN TEMP:  22; 6HR MAX TEMP:  35;

MONTICELLO *   FAIR      37  25  60 W18       29.89R WCI  27
OELWEIN *      FAIR      32  27  80 W17G25    29.87R WCI  21
WATERLOO       FAIR      31  22  69 W21G26    29.89R WCI  18
6HR MIN TEMP:  18; 6HR MAX TEMP:  31;

$$

IAZ064-065-067-068-078-251900-
   EAST CENTRAL IOWA

CITY           SKY/WX    TMP DP  RH WIND       PRES   REMARKS
DAVENPORT      FAIR      41  25  53 W21       29.96S
6HR MIN TEMP:  30; 6HR MAX TEMP:  41;

IOWA CITY      FAIR      42  25  50 W16       29.97R
6HR MIN TEMP:  28; 6HR MAX TEMP:  42;

MT. PLEASANT * SUNNY     41  27  56 SW20      30.00R
MUSCATINE *    FAIR      43  25  49 W15G21    29.98R
QUAD CITIES    FAIR      43  26  51 SW17G23   29.95S
6HR MIN TEMP:  31; 6HR MAX TEMP:  43;

$$

IAZ062-063-075>077-085>089-095>099-251900-
   SOUTHEAST IOWA

CITY           SKY/WX    TMP DP  RH WIND       PRES   REMARKS
BURLINGTON     SUNNY     42  26  53 SW18      30.00R
6HR MIN TEMP:  30; 6HR MAX TEMP:  42;

FAIRFIELD *    SUNNY     43  25  49 SW18      29.98S
FORT MADISON * SUNNY     43  27  52 SW13G21   30.03R
KEOKUK *       SUNNY     43  27  52 SW15      30.03R
OTTUMWA        SUNNY     43  25  49 SW21      29.98R
6HR MIN TEMP:  27; 6HR MAX TEMP:  43;

WASHINGTON *   SUNNY     41  27  56 SW15G23   29.98R
$$

ABBREVIATIONS USED IN REMARKS
   TC - TEMPERATURES IN CELSIUS
  WCI - WIND CHILL INDEX
   HX - HEAT INDEX
  VSB - VISIBILITY
$$





USA.gov is the U.S. government's official web portal to all federal, state and local government web resources and services.